User: anonymous   Login
Location: Newark
(52.1031°N, 9.3600°E)
Time: 17:01:11
(UTC+00:00)
Language:

AO-73 - Orbit

View from above orbital plane
View from above orbital plane
View from above satellite
View from above satellite

Ground track
Ground track

The orbit data is extracted from the following two-line orbital elements,

1 39444U 13066AE  19339.44871371  .00000213  00000-0  32481-4 0  9998
2 39444  97.5579 345.5013 0057793 189.0665 170.9511 14.82021592325070
Epoch (UTC): 05 December 2019 10:46:08
Eccentricity: 0.0057793
inclination: 97.5579°
perigee height: 582 km
apogee height: 663 km
right ascension of ascending node: 345.5013°
argument of perigee: 189.0665°
revolutions per day: 14.82021592
mean anomaly at epoch: 170.9511°
orbit number at epoch: 32507

The dashed part of the orbit path shows where the satellite is in the earth's shadow,  

DLR